This is the latest recevied weather packets stored in our database for station/object N4BBA. If no packets are shown the sender has not sent any weather packets the latest 10 day(s).
| Time | Temp. | Humidity | Pressure | Rain* | Wind** | Luminosity | Snow |
|---|---|---|---|---|---|---|---|
| 1777644961 | 12.22° C | 77% | 1015.3 hPa | 0 mm | - | 198 W/m² | - |
| 1777644659 | 11.67° C | 77% | 1015.3 hPa | 0 mm | - | 167 W/m² | - |
| 1777644355 | 11.67° C | 78% | 1015.6 hPa | 0 mm | - | 158 W/m² | - |
| 1777644051 | 11.11° C | 78% | 1015.1 hPa | 0 mm | - | 136 W/m² | - |
| 1777643748 | 11.67° C | 77% | 1014.8 hPa | 0 mm | - | 118 W/m² | - |
| 1777643446 | 11.67° C | 77% | 1015.5 hPa | 0 mm | - | 106 W/m² | - |
| 1777643142 | 11.67° C | 76% | 1015.5 hPa | 0 mm | - | 131 W/m² | - |
| 1777642839 | 11.67° C | 74% | 1015.5 hPa | 0 mm | - | 109 W/m² | - |
| 1777642536 | 11.67° C | 72% | 1016.1 hPa | 0 mm | - | 87 W/m² | - |
| 1777642232 | 12.22° C | 70% | 1016.1 hPa | 0 mm | - | 66 W/m² | - |
| 1777641930 | 12.22° C | 70% | 1016.4 hPa | 0 mm | - | 56 W/m² | - |
| 1777641625 | 12.22° C | 68% | 1016.5 hPa | 0 mm | - | 73 W/m² | - |
| 1777641320 | 12.22° C | 69% | 1016.3 hPa | 0 mm | - | 61 W/m² | - |
| 1777641016 | 12.22° C | 69% | 1015.5 hPa | 0 mm | - | 76 W/m² | - |
| 1777640712 | 12.22° C | 70% | 1015.4 hPa | 0 mm | - | 85 W/m² | - |
| 1777640409 | 12.78° C | 71% | 1015.1 hPa | 0 mm | - | 131 W/m² | - |
| 1777640106 | 12.22° C | 71% | 1015.2 hPa | 0 mm | - | 145 W/m² | - |
| 1777639803 | 12.22° C | 71% | 1015.1 hPa | 0 mm | - | 126 W/m² | - |
| 1777639500 | 12.22° C | 70% | 1015.2 hPa | 0 mm | - | 84 W/m² | - |
| 1777639196 | 12.22° C | 71% | 1015 hPa | 0 mm | - | 86 W/m² | - |
| 1777638893 | 12.22° C | 71% | 1015 hPa | 0 mm | - | 92 W/m² | - |
| 1777638597 | 12.22° C | 71% | 1015 hPa | 0 mm | - | 64 W/m² | - |
| 1777638286 | 12.22° C | 71% | 1015.2 hPa | 0 mm | - | 81 W/m² | - |
| 1777637982 | 12.22° C | 71% | 1014.9 hPa | 0 mm | - | 110 W/m² | - |
| 1777637678 | 12.22° C | 72% | 1014.9 hPa | 0 mm | - | 101 W/m² | - |
* Rain latest hour (hover to see other rain measurements)
** Current wind speed in m/s (hover to see current wind gust speed)